Time,TemperatureF,DewpointF,PressureIn,WindDirection,WindDirectionDegrees,WindSpeedMPH,WindSpeedGustMPH,Humidity,HourlyPrecipIn,Conditions,Clouds,dailyrainin,SoftwareType,DateUTC
2013-03-08 00:00:00,31.6,29.0,29.93,North,356,15.0,30.0,90,0.00,,,0.00,HR-IXPWINDi_r2_v1.2.,2013-03-08 05:00:00,
2013-03-08 00:05:00,31.7,28.8,29.93,NNW,347,11.0,30.0,89,0.00,,,0.00,HR-IXPWINDi_r2_v1.2.,2013-03-08 05:05:00,
2013-03-08 00:10:00,31.7,28.8,29.93,North,11,19.0,28.0,89,0.00,,,0.00,HR-IXPWINDi_r2_v1.2.,2013-03-08 05:10:00,
2013-03-08 00:15:00,31.7,28.8,29.93,North,7,15.0,27.0,89,0.00,,,0.00,HR-IXPWINDi_r2_v1.2.,2013-03-08 05:15:00,
2013-03-08 00:21:00,31.8,28.9,29.92,NNW,339,12.0,30.0,89,0.00,,,0.00,HR-IXPWINDi_r2_v1.2.,2013-03-08 05:21:00,
2013-03-08 00:26:00,31.8,28.9,29.92,NNE,16,16.0,30.0,89,0.00,,,0.00,HR-IXPWINDi_r2_v1.2.,2013-03-08 05:26:00,
2013-03-08 00:31:00,31.8,28.9,29.92,NNE,20,13.0,27.0,89,0.00,,,0.00,HR-IXPWINDi_r2_v1.2.,2013-03-08 05:31:00,
2013-03-08 00:36:00,31.9,29.0,29.92,NNE,26,18.0,28.0,89,0.00,,,0.00,HR-IXPWINDi_r2_v1.2.,2013-03-08 05:36:00,
2013-03-08 00:41:00,31.9,28.7,29.92,NNE,16,17.0,28.0,88,0.00,,,0.00,HR-IXPWINDi_r2_v1.2.,2013-03-08 05:41:00,
2013-03-08 00:46:00,32.0,28.8,29.92,NNE,13,15.0,29.0,88,0.00,,,0.00,HR-IXPWINDi_r2_v1.2.,2013-03-08 05:46:00,
2013-03-08 00:52:00,32.0,28.8,29.92,North,7,23.0,29.0,88,0.00,,,0.00,HR-IXPWINDi_r2_v1.2.,2013-03-08 05:52:00,
2013-03-08 00:57:00,32.1,28.6,29.92,North,11,12.0,32.0,87,0.00,,,0.00,HR-IXPWINDi_r2_v1.2.,2013-03-08 05:57:00,
2013-03-08 01:02:00,32.1,28.6,29.92,NNW,342,6.0,32.0,87,0.00,,,0.00,HR-IXPWINDi_r2_v1.2.,2013-03-08 06:02:00,
2013-03-08 01:08:00,32.1,28.6,29.92,NNE,20,19.0,27.0,87,0.00,,,0.00,HR-IXPWINDi_r2_v1.2.,2013-03-08 06:08:00,
2013-03-08 01:13:00,32.2,28.7,29.92,North,354,16.0,29.0,87,0.00,,,0.00,HR-IXPWINDi_r2_v1.2.,2013-03-08 06:13:00,
2013-03-08 01:18:00,32.2,28.7,29.91,NNW,332,15.0,29.0,87,0.00,,,0.00,HR-IXPWINDi_r2_v1.2.,2013-03-08 06:18:00,
2013-03-08 01:23:00,32.3,28.6,29.91,NNE,16,20.0,30.0,86,0.00,,,0.00,HR-IXPWINDi_r2_v1.2.,2013-03-08 06:23:00,
2013-03-08 01:28:00,32.3,28.6,29.91,North,350,9.0,30.0,86,0.00,,,0.00,HR-IXPWINDi_r2_v1.2.,2013-03-08 06:28:00,
2013-03-08 01:33:00,32.4,28.7,29.91,NNE,32,21.0,32.0,86,0.00,,,0.00,HR-IXPWINDi_r2_v1.2.,2013-03-08 06:33:00,
2013-03-08 01:39:00,32.3,28.6,29.91,North,354,7.0,32.0,86,0.00,,,0.00,HR-IXPWINDi_r2_v1.2.,2013-03-08 06:39:00,
2013-03-08 01:44:00,32.4,28.7,29.91,North,4,12.0,30.0,86,0.00,,,0.00,HR-IXPWINDi_r2_v1.2.,2013-03-08 06:44:00,
2013-03-08 01:49:00,32.3,28.6,29.91,NNW,340,18.0,22.0,86,0.00,,,0.00,HR-IXPWINDi_r2_v1.2.,2013-03-08 06:49:00,
2013-03-08 01:54:00,32.4,28.4,29.91,North,11,22.0,28.0,85,0.00,,,0.00,HR-IXPWINDi_r2_v1.2.,2013-03-08 06:54:00,
2013-03-08 01:59:00,32.4,28.4,29.92,North,9,21.0,28.0,85,0.00,,,0.00,HR-IXPWINDi_r2_v1.2.,2013-03-08 06:59:00,
2013-03-08 02:04:00,32.3,28.3,29.91,North,349,17.0,24.0,85,0.00,,,0.00,HR-IXPWINDi_r2_v1.2.,2013-03-08 07:04:00,
2013-03-08 02:09:00,32.3,28.3,29.92,NNE,12,8.0,34.0,85,0.00,,,0.00,HR-IXPWINDi_r2_v1.2.,2013-03-08 07:09:00,
2013-03-08 02:15:00,32.3,28.3,29.91,North,1,11.0,34.0,85,0.00,,,0.00,HR-IXPWINDi_r2_v1.2.,2013-03-08 07:15:00,
2013-03-08 02:20:00,32.3,28.3,29.91,NE,36,9.0,26.0,85,0.00,,,0.00,HR-IXPWINDi_r2_v1.2.,2013-03-08 07:20:00,
2013-03-08 02:25:00,32.3,28.3,29.91,NNE,20,6.0,27.0,85,0.00,,,0.00,HR-IXPWINDi_r2_v1.2.,2013-03-08 07:25:00,
2013-03-08 02:30:00,32.3,28.3,29.91,North,357,13.0,27.0,85,0.00,,,0.00,HR-IXPWINDi_r2_v1.2.,2013-03-08 07:30:00,
2013-03-08 02:35:00,32.3,28.0,29.91,North,4,17.0,29.0,84,0.00,,,0.00,HR-IXPWINDi_r2_v1.2.,2013-03-08 07:35:00,
2013-03-08 02:41:00,32.2,27.9,29.91,NNW,330,10.0,31.0,84,0.00,,,0.00,HR-IXPWINDi_r2_v1.2.,2013-03-08 07:41:00,
2013-03-08 02:46:00,32.2,27.9,29.91,North,359,18.0,31.0,84,0.00,,,0.00,HR-IXPWINDi_r2_v1.2.,2013-03-08 07:46:00,
2013-03-08 02:51:00,32.1,28.1,29.91,North,355,15.0,26.0,85,0.00,,,0.00,HR-IXPWINDi_r2_v1.2.,2013-03-08 07:51:00,
2013-03-08 02:56:00,32.1,28.1,29.91,North,8,8.0,26.0,85,0.00,,,0.00,HR-IXPWINDi_r2_v1.2.,2013-03-08 07:56:00,
2013-03-08 03:01:00,32.0,28.0,29.91,NNE,19,14.0,24.0,85,0.00,,,0.00,HR-IXPWINDi_r2_v1.2.,2013-03-08 08:01:00,
2013-03-08 03:07:00,32.0,28.0,29.91,ENE,68,14.0,23.0,85,0.00,,,0.00,HR-IXPWINDi_r2_v1.2.,2013-03-08 08:07:00,
2013-03-08 03:12:00,31.9,27.9,29.91,ENE,63,18.0,26.0,85,0.00,,,0.00,HR-IXPWINDi_r2_v1.2.,2013-03-08 08:12:00,
2013-03-08 03:17:00,31.8,27.8,29.91,North,352,17.0,29.0,85,0.00,,,0.00,HR-IXPWINDi_r2_v1.2.,2013-03-08 08:17:00,
2013-03-08 03:22:00,31.8,28.1,29.90,NNW,343,14.0,29.0,86,0.00,,,0.00,HR-IXPWINDi_r2_v1.2.,2013-03-08 08:22:00,
2013-03-08 03:27:00,31.7,28.0,29.91,NNW,339,15.0,27.0,86,0.00,,,0.00,HR-IXPWINDi_r2_v1.2.,2013-03-08 08:27:00,
2013-03-08 03:32:00,31.6,28.2,29.91,NNE,23,14.0,26.0,87,0.00,,,0.00,HR-IXPWINDi_r2_v1.2.,2013-03-08 08:32:00,
2013-03-08 03:38:00,31.5,28.1,29.90,NNW,347,13.0,26.0,87,0.00,,,0.00,HR-IXPWINDi_r2_v1.2.,2013-03-08 08:38:00,
2013-03-08 03:43:00,31.4,28.2,29.91,NNW,330,8.0,26.0,88,0.00,,,0.00,HR-IXPWINDi_r2_v1.2.,2013-03-08 08:43:00,
2013-03-08 03:48:00,31.4,28.2,29.91,NNE,18,14.0,25.0,88,0.00,,,0.00,HR-IXPWINDi_r2_v1.2.,2013-03-08 08:48:00,
2013-03-08 03:53:00,31.3,28.1,29.91,NNE,12,20.0,24.0,88,0.00,,,0.00,HR-IXPWINDi_r2_v1.2.,2013-03-08 08:53:00,
2013-03-08 03:58:00,31.2,28.3,29.91,North,354,17.0,26.0,89,0.00,,,0.00,HR-IXPWINDi_r2_v1.2.,2013-03-08 08:58:00,
2013-03-08 04:04:00,31.1,28.2,29.91,North,5,14.0,31.0,89,0.00,,,0.00,HR-IXPWINDi_r2_v1.2.,2013-03-08 09:04:00,
2013-03-08 04:09:00,31.0,28.4,29.91,NNE,30,8.0,31.0,90,0.00,,,0.00,HR-IXPWINDi_r2_v1.2.,2013-03-08 09:09:00,
2013-03-08 04:14:00,30.8,28.5,29.91,North,360,14.0,25.0,91,0.00,,,0.00,HR-IXPWINDi_r2_v1.2.,2013-03-08 09:14:00,
2013-03-08 04:19:00,30.8,28.5,29.91,NNE,13,19.0,25.0,91,0.00,,,0.00,HR-IXPWINDi_r2_v1.2.,2013-03-08 09:19:00,
2013-03-08 04:24:00,30.7,28.4,29.91,NNW,330,9.0,24.0,91,0.00,,,0.00,HR-IXPWINDi_r2_v1.2.,2013-03-08 09:24:00,
2013-03-08 04:30:00,30.6,28.5,29.91,NNE,27,13.0,25.0,92,0.00,,,0.00,HR-IXPWINDi_r2_v1.2.,2013-03-08 09:30:00,
2013-03-08 04:35:00,30.6,28.5,29.91,NNW,342,20.0,25.0,92,0.00,,,0.00,HR-IXPWINDi_r2_v1.2.,2013-03-08 09:35:00,
2013-03-08 04:40:00,30.5,28.4,29.91,NNE,12,9.0,24.0,92,0.00,,,0.00,HR-IXPWINDi_r2_v1.2.,2013-03-08 09:40:00,
2013-03-08 04:45:00,30.5,28.4,29.91,NW,307,15.0,24.0,92,0.00,,,0.00,HR-IXPWINDi_r2_v1.2.,2013-03-08 09:45:00,
2013-03-08 04:50:00,30.5,28.7,29.91,NNE,23,9.0,22.0,93,0.00,,,0.00,HR-IXPWINDi_r2_v1.2.,2013-03-08 09:50:00,
2013-03-08 04:56:00,30.5,28.7,29.91,North,9,17.0,25.0,93,0.00,,,0.00,HR-IXPWINDi_r2_v1.2.,2013-03-08 09:56:00,
2013-03-08 05:01:00,30.4,28.6,29.91,NNW,340,12.0,25.0,93,0.00,,,0.00,HR-IXPWINDi_r2_v1.2.,2013-03-08 10:01:00,
2013-03-08 05:06:00,30.5,28.7,29.91,North,1,20.0,25.0,93,0.00,,,0.00,HR-IXPWINDi_r2_v1.2.,2013-03-08 10:06:00,
2013-03-08 05:11:00,30.5,28.7,29.91,North,11,12.0,28.0,93,0.00,,,0.00,HR-IXPWINDi_r2_v1.2.,2013-03-08 10:11:00,
2013-03-08 05:16:00,30.4,28.6,29.91,North,352,10.0,28.0,93,0.00,,,0.00,HR-IXPWINDi_r2_v1.2.,2013-03-08 10:16:00,
2013-03-08 05:21:00,30.5,28.4,29.91,NNW,338,9.0,26.0,92,0.00,,,0.00,HR-IXPWINDi_r2_v1.2.,2013-03-08 10:21:00,
2013-03-08 05:26:00,30.5,28.4,29.90,North,352,12.0,24.0,92,0.00,,,0.00,HR-IXPWINDi_r2_v1.2.,2013-03-08 10:26:00,
2013-03-08 05:32:00,30.6,28.5,29.91,NNE,18,15.0,24.0,92,0.00,,,0.00,HR-IXPWINDi_r2_v1.2.,2013-03-08 10:32:00,
2013-03-08 05:37:00,30.7,28.4,29.91,NNE,12,20.0,25.0,91,0.00,,,0.00,HR-IXPWINDi_r2_v1.2.,2013-03-08 10:37:00,
2013-03-08 05:42:00,30.6,28.3,29.91,NNE,15,12.0,25.0,91,0.00,,,0.00,HR-IXPWINDi_r2_v1.2.,2013-03-08 10:42:00,
2013-03-08 05:47:00,30.7,28.4,29.91,NNW,347,8.0,24.0,91,0.00,,,0.00,HR-IXPWINDi_r2_v1.2.,2013-03-08 10:47:00,
2013-03-08 05:52:00,30.6,28.3,29.91,NNE,16,14.0,24.0,91,0.00,,,0.00,HR-IXPWINDi_r2_v1.2.,2013-03-08 10:52:00,
2013-03-08 05:58:00,30.7,28.4,29.91,NNW,346,10.0,23.0,91,0.00,,,0.00,HR-IXPWINDi_r2_v1.2.,2013-03-08 10:58:00,
2013-03-08 06:03:00,30.7,28.4,29.91,NNW,342,14.0,23.0,91,0.00,,,0.00,HR-IXPWINDi_r2_v1.2.,2013-03-08 11:03:00,
2013-03-08 06:08:00,30.7,28.4,29.91,North,360,16.0,25.0,91,0.00,,,0.00,HR-IXPWINDi_r2_v1.2.,2013-03-08 11:08:00,
2013-03-08 06:13:00,30.7,28.4,29.91,NNE,15,16.0,25.0,91,0.00,,,0.00,HR-IXPWINDi_r2_v1.2.,2013-03-08 11:13:00,
2013-03-08 06:18:00,30.6,28.3,29.91,NNE,12,10.0,25.0,91,0.00,,,0.00,HR-IXPWINDi_r2_v1.2.,2013-03-08 11:18:00,
2013-03-08 06:23:00,30.5,28.4,29.91,North,8,13.0,24.0,92,0.00,,,0.00,HR-IXPWINDi_r2_v1.2.,2013-03-08 11:23:00,
2013-03-08 06:29:00,30.5,28.4,29.91,North,10,14.0,27.0,92,0.00,,,0.00,HR-IXPWINDi_r2_v1.2.,2013-03-08 11:29:00,
2013-03-08 06:34:00,30.4,28.3,29.91,North,1,10.0,27.0,92,0.00,,,0.00,HR-IXPWINDi_r2_v1.2.,2013-03-08 11:34:00,
2013-03-08 06:39:00,30.4,28.3,29.91,North,357,14.0,25.0,92,0.00,,,0.00,HR-IXPWINDi_r2_v1.2.,2013-03-08 11:39:00,
2013-03-08 06:44:00,30.4,28.6,29.91,NE,36,9.0,32.0,93,0.00,,,0.00,HR-IXPWINDi_r2_v1.2.,2013-03-08 11:44:00,
2013-03-08 06:49:00,30.4,28.6,29.91,NNE,23,17.0,32.0,93,0.00,,,0.00,HR-IXPWINDi_r2_v1.2.,2013-03-08 11:49:00,
2013-03-08 06:54:00,30.4,28.6,29.91,NE,36,17.0,26.0,93,0.00,,,0.00,HR-IXPWINDi_r2_v1.2.,2013-03-08 11:54:00,
2013-03-08 06:59:00,30.3,28.5,29.91,NNW,342,10.0,26.0,93,0.00,,,0.00,HR-IXPWINDi_r2_v1.2.,2013-03-08 11:59:00,
2013-03-08 07:04:00,30.3,28.5,29.91,NNE,22,7.0,26.0,93,0.00,,,0.00,HR-IXPWINDi_r2_v1.2.,2013-03-08 12:04:00,
2013-03-08 07:09:00,30.3,28.5,29.91,NNE,23,10.0,28.0,93,0.00,,,0.00,HR-IXPWINDi_r2_v1.2.,2013-03-08 12:09:00,
2013-03-08 07:15:00,30.4,28.3,29.91,NNW,342,6.0,28.0,92,0.00,,,0.00,HR-IXPWINDi_r2_v1.2.,2013-03-08 12:15:00,
2013-03-08 07:20:00,30.5,28.4,29.92,NE,41,11.0,26.0,92,0.00,,,0.00,HR-IXPWINDi_r2_v1.2.,2013-03-08 12:20:00,
2013-03-08 07:25:00,30.6,28.5,29.91,NW,315,13.0,26.0,92,0.00,,,0.00,HR-IXPWINDi_r2_v1.2.,2013-03-08 12:25:00,
2013-03-08 07:30:00,30.8,28.5,29.91,NNE,29,10.0,32.0,91,0.00,,,0.00,HR-IXPWINDi_r2_v1.2.,2013-03-08 12:30:00,
2013-03-08 07:35:00,30.9,28.3,29.91,NNE,20,19.0,32.0,90,0.00,,,0.00,HR-IXPWINDi_r2_v1.2.,2013-03-08 12:35:00,
2013-03-08 07:41:00,31.0,28.4,29.91,NNE,15,19.0,25.0,90,0.00,,,0.00,HR-IXPWINDi_r2_v1.2.,2013-03-08 12:41:00,
2013-03-08 07:46:00,31.0,28.4,29.91,NNE,15,13.0,30.0,90,0.00,,,0.00,HR-IXPWINDi_r2_v1.2.,2013-03-08 12:46:00,
2013-03-08 07:51:00,31.1,28.2,29.92,NNE,14,17.0,30.0,89,0.00,,,0.00,HR-IXPWINDi_r2_v1.2.,2013-03-08 12:51:00,
2013-03-08 07:56:00,31.2,28.0,29.91,NNE,25,13.0,30.0,88,0.00,,,0.00,HR-IXPWINDi_r2_v1.2.,2013-03-08 12:56:00,
2013-03-08 08:01:00,31.3,28.4,29.92,North,355,19.0,30.0,89,0.00,,,0.00,HR-IXPWINDi_r2_v1.2.,2013-03-08 13:01:00,
2013-03-08 08:07:00,31.4,28.2,29.92,North,10,8.0,24.0,88,0.00,,,0.00,HR-IXPWINDi_r2_v1.2.,2013-03-08 13:07:00,
2013-03-08 08:12:00,31.4,28.2,29.92,North,8,19.0,27.0,88,0.00,,,0.00,HR-IXPWINDi_r2_v1.2.,2013-03-08 13:12:00,
2013-03-08 08:17:00,31.3,28.4,29.92,NNW,347,20.0,27.0,89,0.00,,,0.00,HR-IXPWINDi_r2_v1.2.,2013-03-08 13:17:00,
2013-03-08 08:22:00,31.1,28.5,29.92,NNE,27,12.0,27.0,90,0.00,,,0.00,HR-IXPWINDi_r2_v1.2.,2013-03-08 13:22:00,
2013-03-08 08:27:00,31.0,28.7,29.92,NW,325,14.0,27.0,91,0.00,,,0.00,HR-IXPWINDi_r2_v1.2.,2013-03-08 13:27:00,
2013-03-08 08:32:00,30.9,28.6,29.92,NNW,340,18.0,30.0,91,0.00,,,0.00,HR-IXPWINDi_r2_v1.2.,2013-03-08 13:32:00,
2013-03-08 08:38:00,31.1,28.5,29.92,NNE,30,21.0,30.0,90,0.00,,,0.00,HR-IXPWINDi_r2_v1.2.,2013-03-08 13:38:00,
2013-03-08 08:43:00,31.2,28.6,29.92,NNE,18,9.0,30.0,90,0.00,,,0.00,HR-IXPWINDi_r2_v1.2.,2013-03-08 13:43:00,
2013-03-08 08:48:00,31.1,28.8,29.92,NE,35,8.0,26.0,91,0.00,,,0.00,HR-IXPWINDi_r2_v1.2.,2013-03-08 13:48:00,
2013-03-08 08:53:00,31.1,28.8,29.92,North,356,23.0,28.0,91,0.00,,,0.00,HR-IXPWINDi_r2_v1.2.,2013-03-08 13:53:00,
2013-03-08 08:58:00,31.2,28.6,29.92,NNW,335,16.0,28.0,90,0.00,,,0.00,HR-IXPWINDi_r2_v1.2.,2013-03-08 13:58:00,
2013-03-08 09:04:00,31.3,28.4,29.92,NNW,334,17.0,28.0,89,0.00,,,0.00,HR-IXPWINDi_r2_v1.2.,2013-03-08 14:04:00,
2013-03-08 09:09:00,31.5,28.3,29.92,NNE,20,26.0,28.0,88,0.00,,,0.00,HR-IXPWINDi_r2_v1.2.,2013-03-08 14:09:00,
2013-03-08 09:14:00,31.6,28.4,29.92,NE,47,10.0,28.0,88,0.00,,,0.00,HR-IXPWINDi_r2_v1.2.,2013-03-08 14:14:00,
2013-03-08 09:19:00,31.6,28.2,29.92,NW,311,14.0,28.0,87,0.00,,,0.00,HR-IXPWINDi_r2_v1.2.,2013-03-08 14:19:00,
2013-03-08 09:24:00,31.7,28.5,29.92,North,1,11.0,25.0,88,0.00,,,0.00,HR-IXPWINDi_r2_v1.2.,2013-03-08 14:24:00,
2013-03-08 09:29:00,31.7,28.3,29.92,North,11,27.0,35.0,87,0.00,,,0.00,HR-IXPWINDi_r2_v1.2.,2013-03-08 14:29:00,
2013-03-08 09:34:00,31.6,28.4,29.93,NNW,329,10.0,35.0,88,0.00,,,0.00,HR-IXPWINDi_r2_v1.2.,2013-03-08 14:34:00,
2013-03-08 09:40:00,31.7,28.5,29.92,NNE,19,22.0,35.0,88,0.00,,,0.00,HR-IXPWINDi_r2_v1.2.,2013-03-08 14:40:00,
2013-03-08 09:45:00,31.8,28.4,29.93,North,9,11.0,29.0,87,0.00,,,0.00,HR-IXPWINDi_r2_v1.2.,2013-03-08 14:45:00,
2013-03-08 09:50:00,31.8,28.4,29.92,NNE,18,20.0,28.0,87,0.00,,,0.00,HR-IXPWINDi_r2_v1.2.,2013-03-08 14:50:00,
2013-03-08 09:55:00,31.6,28.4,29.92,NNE,18,17.0,28.0,88,0.00,,,0.00,HR-IXPWINDi_r2_v1.2.,2013-03-08 14:55:00,
2013-03-08 10:00:00,31.4,28.2,29.93,NNE,20,21.0,28.0,88,0.00,,,0.00,HR-IXPWINDi_r2_v1.2.,2013-03-08 15:00:00,
2013-03-08 10:05:00,31.3,28.1,29.92,North,354,24.0,29.0,88,0.00,,,0.00,HR-IXPWINDi_r2_v1.2.,2013-03-08 15:05:00,
2013-03-08 10:10:00,31.4,28.2,29.93,NNE,12,22.0,33.0,88,0.00,,,0.00,HR-IXPWINDi_r2_v1.2.,2013-03-08 15:10:00,
2013-03-08 10:15:00,31.4,28.2,29.93,North,357,14.0,33.0,88,0.00,,,0.00,HR-IXPWINDi_r2_v1.2.,2013-03-08 15:15:00,
2013-03-08 10:21:00,31.4,28.2,29.92,NNW,339,26.0,34.0,88,0.00,,,0.00,HR-IXPWINDi_r2_v1.2.,2013-03-08 15:21:00,
2013-03-08 10:26:00,31.4,28.2,29.93,North,352,22.0,34.0,88,0.00,,,0.00,HR-IXPWINDi_r2_v1.2.,2013-03-08 15:26:00,
2013-03-08 10:31:00,31.5,28.3,29.93,North,11,23.0,31.0,88,0.00,,,0.00,HR-IXPWINDi_r2_v1.2.,2013-03-08 15:31:00,
2013-03-08 10:36:00,31.6,28.2,29.93,NNW,342,19.0,33.0,87,0.00,,,0.00,HR-IXPWINDi_r2_v1.2.,2013-03-08 15:36:00,
2013-03-08 10:41:00,31.6,28.2,29.93,North,352,24.0,33.0,87,0.00,,,0.00,HR-IXPWINDi_r2_v1.2.,2013-03-08 15:41:00,
2013-03-08 10:47:00,31.6,28.4,29.93,NNW,347,15.0,34.0,88,0.00,,,0.00,HR-IXPWINDi_r2_v1.2.,2013-03-08 15:47:00,
2013-03-08 10:52:00,31.6,28.4,29.93,NNW,330,21.0,34.0,88,0.00,,,0.00,HR-IXPWINDi_r2_v1.2.,2013-03-08 15:52:00,
2013-03-08 10:57:00,31.7,28.3,29.93,NNE,23,19.0,29.0,87,0.00,,,0.00,HR-IXPWINDi_r2_v1.2.,2013-03-08 15:57:00,
2013-03-08 11:02:00,31.7,28.3,29.93,NNW,339,18.0,34.0,87,0.00,,,0.00,HR-IXPWINDi_r2_v1.2.,2013-03-08 16:02:00,
2013-03-08 11:07:00,31.7,28.3,29.94,NNE,23,18.0,34.0,87,0.00,,,0.00,HR-IXPWINDi_r2_v1.2.,2013-03-08 16:07:00,
2013-03-08 11:13:00,31.8,28.6,29.94,North,8,15.0,31.0,88,0.00,,,0.00,HR-IXPWINDi_r2_v1.2.,2013-03-08 16:13:00,
2013-03-08 11:18:00,31.8,28.4,29.94,NNE,15,21.0,31.0,87,0.00,,,0.00,HR-IXPWINDi_r2_v1.2.,2013-03-08 16:18:00,
2013-03-08 11:23:00,31.8,28.6,29.94,North,354,19.0,31.0,88,0.00,,,0.00,HR-IXPWINDi_r2_v1.2.,2013-03-08 16:23:00,
2013-03-08 11:28:00,31.9,28.7,29.94,NNE,20,10.0,28.0,88,0.00,,,0.00,HR-IXPWINDi_r2_v1.2.,2013-03-08 16:28:00,
2013-03-08 11:33:00,31.9,28.5,29.94,North,6,17.0,26.0,87,0.00,,,0.00,HR-IXPWINDi_r2_v1.2.,2013-03-08 16:33:00,
2013-03-08 11:38:00,31.9,28.5,29.94,NNW,342,11.0,29.0,87,0.00,,,0.00,HR-IXPWINDi_r2_v1.2.,2013-03-08 16:38:00,
2013-03-08 11:43:00,31.8,28.4,29.94,NNE,32,9.0,31.0,87,0.00,,,0.00,HR-IXPWINDi_r2_v1.2.,2013-03-08 16:43:00,
2013-03-08 11:48:00,31.8,28.6,29.94,NNW,346,26.0,31.0,88,0.00,,,0.00,HR-IXPWINDi_r2_v1.2.,2013-03-08 16:48:00,
2013-03-08 11:54:00,31.8,28.4,29.94,North,354,15.0,29.0,87,0.00,,,0.00,HR-IXPWINDi_r2_v1.2.,2013-03-08 16:54:00,
2013-03-08 11:59:00,32.0,28.3,29.94,North,9,19.0,29.0,86,0.00,,,0.00,HR-IXPWINDi_r2_v1.2.,2013-03-08 16:59:00,
2013-03-08 12:04:00,32.1,28.4,29.94,North,349,19.0,26.0,86,0.00,,,0.00,HR-IXPWINDi_r2_v1.2.,2013-03-08 17:04:00,
2013-03-08 12:09:00,32.2,28.5,29.94,NNE,13,15.0,26.0,86,0.00,,,0.00,HR-IXPWINDi_r2_v1.2.,2013-03-08 17:09:00,
2013-03-08 12:15:00,32.3,28.6,29.94,NNE,23,13.0,26.0,86,0.00,,,0.00,HR-IXPWINDi_r2_v1.2.,2013-03-08 17:15:00,
2013-03-08 12:20:00,32.2,28.5,29.94,NNE,29,22.0,26.0,86,0.00,,,0.00,HR-IXPWINDi_r2_v1.2.,2013-03-08 17:20:00,
2013-03-08 12:25:00,32.3,28.3,29.94,North,360,22.0,29.0,85,0.00,,,0.00,HR-IXPWINDi_r2_v1.2.,2013-03-08 17:25:00,
2013-03-08 12:30:00,32.4,28.4,29.94,NE,41,16.0,29.0,85,0.00,,,0.00,HR-IXPWINDi_r2_v1.2.,2013-03-08 17:30:00,
2013-03-08 12:35:00,32.5,28.5,29.94,NNW,339,23.0,31.0,85,0.00,,,0.00,HR-IXPWINDi_r2_v1.2.,2013-03-08 17:35:00,
2013-03-08 12:40:00,32.5,28.2,29.94,North,358,11.0,31.0,84,0.00,,,0.00,HR-IXPWINDi_r2_v1.2.,2013-03-08 17:40:00,
2013-03-08 12:45:00,32.6,28.6,29.94,North,11,19.0,28.0,85,0.00,,,0.00,HR-IXPWINDi_r2_v1.2.,2013-03-08 17:45:00,
2013-03-08 12:51:00,32.7,28.4,29.94,NNE,16,21.0,30.0,84,0.00,,,0.00,HR-IXPWINDi_r2_v1.2.,2013-03-08 17:51:00,
2013-03-08 12:56:00,32.8,28.5,29.94,North,349,30.0,30.0,84,0.00,,,0.00,HR-IXPWINDi_r2_v1.2.,2013-03-08 17:56:00,
2013-03-08 13:01:00,33.0,28.7,29.94,NNW,345,24.0,35.0,84,0.00,,,0.00,HR-IXPWINDi_r2_v1.2.,2013-03-08 18:01:00,
2013-03-08 13:06:00,33.0,28.4,29.94,NNE,32,22.0,35.0,83,0.00,,,0.00,HR-IXPWINDi_r2_v1.2.,2013-03-08 18:06:00,
2013-03-08 13:11:00,33.0,28.4,29.94,NNE,18,13.0,34.0,83,0.00,,,0.00,HR-IXPWINDi_r2_v1.2.,2013-03-08 18:11:00,
2013-03-08 13:16:00,33.1,28.8,29.94,NNE,33,16.0,34.0,84,0.00,,,0.00,HR-IXPWINDi_r2_v1.2.,2013-03-08 18:16:00,
2013-03-08 13:21:00,33.0,28.7,29.95,NE,43,11.0,34.0,84,0.00,,,0.00,HR-IXPWINDi_r2_v1.2.,2013-03-08 18:21:00,
2013-03-08 13:27:00,33.1,28.8,29.94,North,4,17.0,36.0,84,0.00,,,0.00,HR-IXPWINDi_r2_v1.2.,2013-03-08 18:27:00,
2013-03-08 13:32:00,33.1,28.8,29.94,North,355,29.0,36.0,84,0.00,,,0.00,HR-IXPWINDi_r2_v1.2.,2013-03-08 18:32:00,
2013-03-08 13:37:00,33.1,28.8,29.94,NNW,341,20.0,34.0,84,0.00,,,0.00,HR-IXPWINDi_r2_v1.2.,2013-03-08 18:37:00,
2013-03-08 13:42:00,33.1,29.1,29.95,NNE,19,23.0,34.0,85,0.00,,,0.00,HR-IXPWINDi_r2_v1.2.,2013-03-08 18:42:00,
2013-03-08 13:47:00,33.1,29.1,29.95,NNW,340,14.0,36.0,85,0.00,,,0.00,HR-IXPWINDi_r2_v1.2.,2013-03-08 18:47:00,
2013-03-08 13:53:00,33.1,29.1,29.95,NNW,339,20.0,36.0,85,0.00,,,0.00,HR-IXPWINDi_r2_v1.2.,2013-03-08 18:53:00,
2013-03-08 13:58:00,33.2,29.2,29.95,NNE,16,13.0,35.0,85,0.00,,,0.00,HR-IXPWINDi_r2_v1.2.,2013-03-08 18:58:00,
2013-03-08 14:03:00,33.1,29.1,29.95,NNE,22,15.0,33.0,85,0.00,,,0.00,HR-IXPWINDi_r2_v1.2.,2013-03-08 19:03:00,
2013-03-08 14:08:00,33.1,29.3,29.96,NNE,23,25.0,35.0,86,0.00,,,0.00,HR-IXPWINDi_r2_v1.2.,2013-03-08 19:08:00,
2013-03-08 14:13:00,33.1,29.3,29.96,NNE,16,15.0,35.0,86,0.00,,,0.00,HR-IXPWINDi_r2_v1.2.,2013-03-08 19:13:00,
2013-03-08 14:19:00,33.1,29.6,29.96,NNE,20,12.0,31.0,87,0.00,,,0.00,HR-IXPWINDi_r2_v1.2.,2013-03-08 19:19:00,
2013-03-08 14:24:00,33.2,29.4,29.96,North,1,11.0,30.0,86,0.00,,,0.00,HR-IXPWINDi_r2_v1.2.,2013-03-08 19:24:00,
2013-03-08 14:29:00,33.2,29.7,29.96,NNW,347,18.0,30.0,87,0.00,,,0.00,HR-IXPWINDi_r2_v1.2.,2013-03-08 19:29:00,
2013-03-08 14:35:00,33.3,29.8,29.96,NNE,16,18.0,36.0,87,0.00,,,0.00,HR-IXPWINDi_r2_v1.2.,2013-03-08 19:35:00,
2013-03-08 14:40:00,33.4,29.9,29.96,NNE,20,24.0,36.0,87,0.00,,,0.00,HR-IXPWINDi_r2_v1.2.,2013-03-08 19:40:00,
2013-03-08 14:45:00,33.5,30.0,29.96,North,6,28.0,33.0,87,0.00,,,0.00,HR-IXPWINDi_r2_v1.2.,2013-03-08 19:45:00,
2013-03-08 14:50:00,33.6,30.1,29.96,North,359,17.0,37.0,87,0.00,,,0.00,HR-IXPWINDi_r2_v1.2.,2013-03-08 19:50:00,
2013-03-08 14:55:00,33.6,30.1,29.96,NNE,22,14.0,37.0,87,0.00,,,0.00,HR-IXPWINDi_r2_v1.2.,2013-03-08 19:55:00,
2013-03-08 15:00:00,33.6,30.1,29.97,NNE,18,26.0,36.0,87,0.00,,,0.00,HR-IXPWINDi_r2_v1.2.,2013-03-08 20:00:00,
2013-03-08 15:05:00,33.7,30.2,29.97,NNE,23,8.0,36.0,87,0.00,,,0.00,HR-IXPWINDi_r2_v1.2.,2013-03-08 20:05:00,
2013-03-08 15:10:00,33.5,30.3,29.97,NNE,16,14.0,36.0,88,0.00,,,0.00,HR-IXPWINDi_r2_v1.2.,2013-03-08 20:10:00,
2013-03-08 15:16:00,33.3,30.4,29.98,NNW,345,15.0,31.0,89,0.00,,,0.00,HR-IXPWINDi_r2_v1.2.,2013-03-08 20:16:00,
2013-03-08 15:21:00,33.2,30.6,29.98,NNW,342,19.0,30.0,90,0.00,,,0.00,HR-IXPWINDi_r2_v1.2.,2013-03-08 20:21:00,
2013-03-08 15:26:00,33.3,30.4,29.98,NNE,29,20.0,30.0,89,0.00,,,0.00,HR-IXPWINDi_r2_v1.2.,2013-03-08 20:26:00,
2013-03-08 15:31:00,33.5,30.6,29.98,North,6,13.0,33.0,89,0.00,,,0.00,HR-IXPWINDi_r2_v1.2.,2013-03-08 20:31:00,
2013-03-08 15:36:00,33.5,30.9,29.98,North,9,24.0,33.0,90,0.00,,,0.00,HR-IXPWINDi_r2_v1.2.,2013-03-08 20:36:00,
2013-03-08 15:42:00,33.6,31.0,29.98,North,8,18.0,31.0,90,0.00,,,0.00,HR-IXPWINDi_r2_v1.2.,2013-03-08 20:42:00,
2013-03-08 15:47:00,33.6,31.0,29.99,North,11,22.0,29.0,90,0.00,,,0.00,HR-IXPWINDi_r2_v1.2.,2013-03-08 20:47:00,
2013-03-08 15:52:00,33.7,31.1,29.99,North,358,17.0,30.0,90,0.00,,,0.00,HR-IXPWINDi_r2_v1.2.,2013-03-08 20:52:00,
2013-03-08 15:57:00,33.8,31.2,29.99,NNE,13,24.0,30.0,90,0.00,,,0.00,HR-IXPWINDi_r2_v1.2.,2013-03-08 20:57:00,
2013-03-08 16:02:00,33.9,31.2,29.99,North,356,13.0,28.0,90,0.00,,,0.00,HR-IXPWINDi_r2_v1.2.,2013-03-08 21:02:00,
2013-03-08 16:07:00,34.0,31.3,29.99,NNE,15,27.0,34.0,90,0.00,,,0.00,HR-IXPWINDi_r2_v1.2.,2013-03-08 21:07:00,
2013-03-08 16:13:00,34.0,31.3,30.00,North,9,18.0,34.0,90,0.00,,,0.00,HR-IXPWINDi_r2_v1.2.,2013-03-08 21:13:00,
2013-03-08 16:18:00,34.1,31.4,30.00,NNE,15,14.0,34.0,90,0.00,,,0.00,HR-IXPWINDi_r2_v1.2.,2013-03-08 21:18:00,
2013-03-08 16:23:00,34.0,31.6,30.00,North,9,29.0,34.0,91,0.00,,,0.00,HR-IXPWINDi_r2_v1.2.,2013-03-08 21:23:00,
2013-03-08 16:28:00,34.1,31.7,30.00,NE,36,25.0,29.0,91,0.00,,,0.00,HR-IXPWINDi_r2_v1.2.,2013-03-08 21:28:00,
2013-03-08 16:33:00,34.3,31.9,30.01,North,356,19.0,30.0,91,0.00,,,0.00,HR-IXPWINDi_r2_v1.2.,2013-03-08 21:33:00,
2013-03-08 16:38:00,34.4,32.0,30.01,North,11,25.0,30.0,91,0.00,,,0.00,HR-IXPWINDi_r2_v1.2.,2013-03-08 21:38:00,
2013-03-08 16:44:00,34.5,31.8,30.01,NNE,20,19.0,33.0,90,0.00,,,0.00,HR-IXPWINDi_r2_v1.2.,2013-03-08 21:44:00,
2013-03-08 16:49:00,34.5,32.1,30.01,NNE,19,15.0,33.0,91,0.00,,,0.00,HR-IXPWINDi_r2_v1.2.,2013-03-08 21:49:00,
2013-03-08 16:54:00,34.5,32.1,30.01,NE,47,19.0,33.0,91,0.00,,,0.00,HR-IXPWINDi_r2_v1.2.,2013-03-08 21:54:00,
2013-03-08 16:59:00,34.5,32.1,30.01,NNW,342,15.0,39.0,91,0.00,,,0.00,HR-IXPWINDi_r2_v1.2.,2013-03-08 21:59:00,
2013-03-08 17:05:00,34.4,32.0,30.01,North,359,25.0,39.0,91,0.00,,,0.00,HR-IXPWINDi_r2_v1.2.,2013-03-08 22:05:00,
2013-03-08 17:10:00,34.4,32.0,30.02,North,1,8.0,30.0,91,0.00,,,0.00,HR-IXPWINDi_r2_v1.2.,2013-03-08 22:10:00,
2013-03-08 17:15:00,34.5,32.1,30.02,ENE,75,14.0,33.0,91,0.00,,,0.00,HR-IXPWINDi_r2_v1.2.,2013-03-08 22:15:00,
2013-03-08 17:20:00,34.5,32.1,30.02,North,359,19.0,34.0,91,0.00,,,0.00,HR-IXPWINDi_r2_v1.2.,2013-03-08 22:20:00,
2013-03-08 17:25:00,34.5,32.1,30.02,NNE,20,25.0,34.0,91,0.00,,,0.00,HR-IXPWINDi_r2_v1.2.,2013-03-08 22:25:00,
2013-03-08 17:31:00,34.5,32.1,30.03,NNE,19,27.0,32.0,91,0.00,,,0.00,HR-IXPWINDi_r2_v1.2.,2013-03-08 22:31:00,
2013-03-08 17:36:00,34.6,32.2,30.03,NNW,347,9.0,32.0,91,0.00,,,0.00,HR-IXPWINDi_r2_v1.2.,2013-03-08 22:36:00,
2013-03-08 17:41:00,34.6,32.5,30.03,NNE,13,26.0,32.0,92,0.00,,,0.00,HR-IXPWINDi_r2_v1.2.,2013-03-08 22:41:00,
2013-03-08 17:46:00,34.6,32.5,30.03,North,355,15.0,34.0,92,0.00,,,0.00,HR-IXPWINDi_r2_v1.2.,2013-03-08 22:46:00,
2013-03-08 17:51:00,34.7,32.6,30.03,North,357,22.0,34.0,92,0.00,,,0.00,HR-IXPWINDi_r2_v1.2.,2013-03-08 22:51:00,
2013-03-08 17:57:00,34.7,32.6,30.04,NW,318,21.0,35.0,92,0.00,,,0.00,HR-IXPWINDi_r2_v1.2.,2013-03-08 22:57:00,
2013-03-08 18:02:00,34.7,32.6,30.04,NNW,343,16.0,35.0,92,0.00,,,0.00,HR-IXPWINDi_r2_v1.2.,2013-03-08 23:02:00,
2013-03-08 18:07:00,34.8,32.7,30.04,NE,41,20.0,33.0,92,0.00,,,0.00,HR-IXPWINDi_r2_v1.2.,2013-03-08 23:07:00,
2013-03-08 18:12:00,34.9,32.8,30.04,North,350,18.0,34.0,92,0.00,,,0.00,HR-IXPWINDi_r2_v1.2.,2013-03-08 23:12:00,
2013-03-08 18:18:00,35.0,32.9,30.05,North,5,18.0,34.0,92,0.00,,,0.00,HR-IXPWINDi_r2_v1.2.,2013-03-08 23:18:00,
2013-03-08 18:23:00,35.1,32.7,30.04,North,356,25.0,34.0,91,0.00,,,0.00,HR-IXPWINDi_r2_v1.2.,2013-03-08 23:23:00,
2013-03-08 18:28:00,35.1,32.7,30.05,North,11,21.0,34.0,91,0.00,,,0.00,HR-IXPWINDi_r2_v1.2.,2013-03-08 23:28:00,
2013-03-08 18:33:00,35.2,32.8,30.05,North,349,24.0,37.0,91,0.00,,,0.00,HR-IXPWINDi_r2_v1.2.,2013-03-08 23:33:00,
2013-03-08 18:38:00,35.4,33.0,30.05,North,355,29.0,46.0,91,0.00,,,0.00,HR-IXPWINDi_r2_v1.2.,2013-03-08 23:38:00,
2013-03-08 18:44:00,35.5,32.8,30.05,NNW,327,15.0,46.0,90,0.00,,,0.00,HR-IXPWINDi_r2_v1.2.,2013-03-08 23:44:00,
2013-03-08 18:49:00,35.5,32.8,30.06,North,10,19.0,30.0,90,0.00,,,0.00,HR-IXPWINDi_r2_v1.2.,2013-03-08 23:49:00,
2013-03-08 18:54:00,35.6,32.9,30.05,North,8,19.0,27.0,90,0.00,,,0.00,HR-IXPWINDi_r2_v1.2.,2013-03-08 23:54:00,
2013-03-08 18:59:00,35.9,32.9,30.05,North,11,27.0,29.0,89,0.00,,,0.00,HR-IXPWINDi_r2_v1.2.,2013-03-08 23:59:00,
2013-03-08 19:04:00,36.3,33.1,30.06,North,357,14.0,30.0,88,0.00,,,0.00,HR-IXPWINDi_r2_v1.2.,2013-03-09 00:04:00,
2013-03-08 19:09:00,36.4,32.9,30.06,North,358,19.0,30.0,87,0.00,,,0.00,HR-IXPWINDi_r2_v1.2.,2013-03-09 00:09:00,
2013-03-08 19:14:00,36.9,32.8,30.06,North,349,16.0,30.0,85,0.00,,,0.00,HR-IXPWINDi_r2_v1.2.,2013-03-09 00:14:00,
2013-03-08 19:19:00,37.2,32.8,30.06,North,355,18.0,30.0,84,0.00,,,0.00,HR-IXPWINDi_r2_v1.2.,2013-03-09 00:19:00,
2013-03-08 19:25:00,37.5,32.5,30.06,North,7,10.0,24.0,82,0.00,,,0.00,HR-IXPWINDi_r2_v1.2.,2013-03-09 00:25:00,
2013-03-08 19:30:00,37.7,32.4,30.06,North,359,18.0,22.0,81,0.00,,,0.00,HR-IXPWINDi_r2_v1.2.,2013-03-09 00:30:00,
2013-03-08 19:35:00,38.0,32.0,30.06,NNE,15,14.0,22.0,79,0.00,,,0.00,HR-IXPWINDi_r2_v1.2.,2013-03-09 00:35:00,
2013-03-08 19:40:00,38.3,32.0,30.06,North,352,14.0,22.0,78,0.00,,,0.00,HR-IXPWINDi_r2_v1.2.,2013-03-09 00:40:00,
2013-03-08 19:46:00,38.5,31.6,30.06,NNW,345,11.0,24.0,76,0.00,,,0.00,HR-IXPWINDi_r2_v1.2.,2013-03-09 00:46:00,
2013-03-08 19:51:00,38.7,31.1,30.06,NNE,18,9.0,24.0,74,0.00,,,0.00,HR-IXPWINDi_r2_v1.2.,2013-03-09 00:51:00,
2013-03-08 19:56:00,38.9,30.6,30.06,NNE,20,11.0,21.0,72,0.00,,,0.00,HR-IXPWINDi_r2_v1.2.,2013-03-09 00:56:00,
2013-03-08 20:01:00,39.0,30.4,30.06,NW,311,5.0,22.0,71,0.00,,,0.00,HR-IXPWINDi_r2_v1.2.,2013-03-09 01:01:00,
2013-03-08 20:06:00,39.4,29.7,30.06,NNE,32,18.0,27.0,68,0.00,,,0.00,HR-IXPWINDi_r2_v1.2.,2013-03-09 01:06:00,
2013-03-08 20:11:00,39.7,29.6,30.07,NNE,16,12.0,27.0,67,0.00,,,0.00,HR-IXPWINDi_r2_v1.2.,2013-03-09 01:11:00,
2013-03-08 20:16:00,40.0,28.8,30.07,NNE,26,12.0,27.0,64,0.00,,,0.00,HR-IXPWINDi_r2_v1.2.,2013-03-09 01:16:00,
2013-03-08 20:22:00,40.3,28.7,30.07,NNE,18,19.0,21.0,63,0.00,,,0.00,HR-IXPWINDi_r2_v1.2.,2013-03-09 01:22:00,
2013-03-08 20:27:00,40.6,28.2,30.07,NNE,26,13.0,26.0,61,0.00,,,0.00,HR-IXPWINDi_r2_v1.2.,2013-03-09 01:27:00,
2013-03-08 20:32:00,40.6,28.2,30.07,NNE,15,11.0,26.0,61,0.00,,,0.00,HR-IXPWINDi_r2_v1.2.,2013-03-09 01:32:00,
2013-03-08 20:37:00,40.7,27.5,30.07,NE,36,12.0,25.0,59,0.00,,,0.00,HR-IXPWINDi_r2_v1.2.,2013-03-09 01:37:00,
2013-03-08 20:42:00,41.0,27.3,30.08,NE,53,9.0,25.0,58,0.00,,,0.00,HR-IXPWINDi_r2_v1.2.,2013-03-09 01:42:00,
2013-03-08 20:48:00,41.2,27.1,30.08,NNW,340,17.0,27.0,57,0.00,,,0.00,HR-IXPWINDi_r2_v1.2.,2013-03-09 01:48:00,
2013-03-08 20:53:00,41.2,26.7,30.08,North,360,18.0,27.0,56,0.00,,,0.00,HR-IXPWINDi_r2_v1.2.,2013-03-09 01:53:00,
2013-03-08 20:58:00,41.2,26.7,30.08,North,349,23.0,31.0,56,0.00,,,0.00,HR-IXPWINDi_r2_v1.2.,2013-03-09 01:58:00,
2013-03-08 21:03:00,41.2,26.7,30.08,NNE,19,21.0,31.0,56,0.00,,,0.00,HR-IXPWINDi_r2_v1.2.,2013-03-09 02:03:00,
2013-03-08 21:08:00,41.3,26.3,30.07,NNE,12,22.0,28.0,55,0.00,,,0.00,HR-IXPWINDi_r2_v1.2.,2013-03-09 02:08:00,
2013-03-08 21:13:00,41.2,26.2,30.07,North,1,13.0,32.0,55,0.00,,,0.00,HR-IXPWINDi_r2_v1.2.,2013-03-09 02:13:00,
2013-03-08 21:18:00,41.1,26.1,30.08,NNE,25,13.0,32.0,55,0.00,,,0.00,HR-IXPWINDi_r2_v1.2.,2013-03-09 02:18:00,
2013-03-08 21:23:00,41.2,26.2,30.08,NNE,22,12.0,32.0,55,0.00,,,0.00,HR-IXPWINDi_r2_v1.2.,2013-03-09 02:23:00,
2013-03-08 21:28:00,41.2,25.8,30.08,North,358,12.0,32.0,54,0.00,,,0.00,HR-IXPWINDi_r2_v1.2.,2013-03-09 02:28:00,
2013-03-08 21:34:00,41.2,25.8,30.09,NE,35,12.0,31.0,54,0.00,,,0.00,HR-IXPWINDi_r2_v1.2.,2013-03-09 02:34:00,
2013-03-08 21:39:00,41.1,25.7,30.09,North,349,14.0,30.0,54,0.00,,,0.00,HR-IXPWINDi_r2_v1.2.,2013-03-09 02:39:00,
2013-03-08 21:44:00,41.0,25.6,30.09,NNE,13,16.0,30.0,54,0.00,,,0.00,HR-IXPWINDi_r2_v1.2.,2013-03-09 02:44:00,
2013-03-08 21:49:00,40.9,25.5,30.09,NNW,340,23.0,29.0,54,0.00,,,0.00,HR-IXPWINDi_r2_v1.2.,2013-03-09 02:49:00,
2013-03-08 21:54:00,40.9,25.5,30.08,NNE,16,21.0,28.0,54,0.00,,,0.00,HR-IXPWINDi_r2_v1.2.,2013-03-09 02:54:00,
2013-03-08 21:59:00,41.0,25.6,30.09,North,359,8.0,33.0,54,0.00,,,0.00,HR-IXPWINDi_r2_v1.2.,2013-03-09 02:59:00,
2013-03-08 22:05:00,40.9,25.1,30.09,NNE,22,13.0,33.0,53,0.00,,,0.00,HR-IXPWINDi_r2_v1.2.,2013-03-09 03:05:00,
2013-03-08 22:10:00,41.1,25.3,30.09,North,352,13.0,31.0,53,0.00,,,0.00,HR-IXPWINDi_r2_v1.2.,2013-03-09 03:10:00,
2013-03-08 22:15:00,40.9,25.1,30.09,North,352,8.0,31.0,53,0.00,,,0.00,HR-IXPWINDi_r2_v1.2.,2013-03-09 03:15:00,
2013-03-08 22:20:00,40.7,24.9,30.09,NNE,13,20.0,30.0,53,0.00,,,0.00,HR-IXPWINDi_r2_v1.2.,2013-03-09 03:20:00,
2013-03-08 22:25:00,40.8,25.0,30.09,NNW,335,17.0,28.0,53,0.00,,,0.00,HR-IXPWINDi_r2_v1.2.,2013-03-09 03:25:00,
2013-03-08 22:31:00,40.8,24.5,30.09,NNW,344,21.0,32.0,52,0.00,,,0.00,HR-IXPWINDi_r2_v1.2.,2013-03-09 03:31:00,
2013-03-08 22:36:00,40.8,24.5,30.09,NNE,13,15.0,32.0,52,0.00,,,0.00,HR-IXPWINDi_r2_v1.2.,2013-03-09 03:36:00,
2013-03-08 22:41:00,40.7,24.4,30.09,North,349,21.0,37.0,52,0.00,,,0.00,HR-IXPWINDi_r2_v1.2.,2013-03-09 03:41:00,
2013-03-08 22:46:00,40.7,24.9,30.10,ENE,60,11.0,39.0,53,0.00,,,0.00,HR-IXPWINDi_r2_v1.2.,2013-03-09 03:46:00,
2013-03-08 22:52:00,40.7,24.4,30.09,NNE,16,13.0,39.0,52,0.00,,,0.00,HR-IXPWINDi_r2_v1.2.,2013-03-09 03:52:00,
2013-03-08 22:57:00,40.5,24.7,30.09,NNE,13,20.0,31.0,53,0.00,,,0.00,HR-IXPWINDi_r2_v1.2.,2013-03-09 03:57:00,
2013-03-08 23:02:00,40.5,24.2,30.09,North,352,12.0,33.0,52,0.00,,,0.00,HR-IXPWINDi_r2_v1.2.,2013-03-09 04:02:00,
2013-03-08 23:07:00,40.4,24.2,30.09,NNW,345,18.0,33.0,52,0.00,,,0.00,HR-IXPWINDi_r2_v1.2.,2013-03-09 04:07:00,
2013-03-08 23:12:00,40.4,24.2,30.08,NE,43,16.0,32.0,52,0.00,,,0.00,HR-IXPWINDi_r2_v1.2.,2013-03-09 04:12:00,
2013-03-08 23:18:00,40.3,24.1,30.08,North,355,12.0,36.0,52,0.00,,,0.00,HR-IXPWINDi_r2_v1.2.,2013-03-09 04:18:00,
2013-03-08 23:23:00,40.3,24.1,30.09,NNE,26,9.0,36.0,52,0.00,,,0.00,HR-IXPWINDi_r2_v1.2.,2013-03-09 04:23:00,
2013-03-08 23:28:00,40.1,23.9,30.09,North,4,18.0,36.0,52,0.00,,,0.00,HR-IXPWINDi_r2_v1.2.,2013-03-09 04:28:00,
2013-03-08 23:33:00,40.1,24.3,30.09,North,357,22.0,36.0,53,0.00,,,0.00,HR-IXPWINDi_r2_v1.2.,2013-03-09 04:33:00,
2013-03-08 23:38:00,40.1,23.9,30.09,North,9,18.0,31.0,52,0.00,,,0.00,HR-IXPWINDi_r2_v1.2.,2013-03-09 04:38:00,
2013-03-08 23:44:00,40.0,23.8,30.09,WNW,300,7.0,31.0,52,0.00,,,0.00,HR-IXPWINDi_r2_v1.2.,2013-03-09 04:44:00,
2013-03-08 23:49:00,39.9,23.7,30.09,North,6,11.0,29.0,52,0.00,,,0.00,HR-IXPWINDi_r2_v1.2.,2013-03-09 04:49:00,
2013-03-08 23:54:00,39.9,23.7,30.09,NNE,17,19.0,27.0,52,0.00,,,0.00,HR-IXPWINDi_r2_v1.2.,2013-03-09 04:54:00,
2013-03-08 23:59:00,39.7,24.0,30.10,North,352,21.0,27.0,53,0.00,,,0.00,HR-IXPWINDi_r2_v1.2.,2013-03-09 04:59:00,